TimeEST,TemperatureF,Dew PointF,Humidity,Sea Level PressureIn,VisibilityMPH,Wind Direction,Wind SpeedMPH,Gust SpeedMPH,PrecipitationIn,Events,Conditions,WindDirDegrees,DateUTC
12:53 AM,61.0,55.0,81,29.92,10.0,Variable,3.5,-,N/A,,Clear,0,2013-01-13 05:53:00
1:53 AM,61.0,53.1,75,29.90,10.0,Variable,5.8,-,N/A,,Clear,0,2013-01-13 06:53:00
2:53 AM,61.0,52.0,72,29.90,10.0,Variable,3.5,-,N/A,,Clear,0,2013-01-13 07:53:00
3:53 AM,60.1,52.0,75,29.89,10.0,Variable,6.9,-,N/A,,Clear,0,2013-01-13 08:53:00
4:53 AM,61.0,52.0,72,29.90,10.0,SSW,5.8,-,N/A,,Clear,210,2013-01-13 09:53:00
5:53 AM,62.1,52.0,70,29.92,10.0,Variable,3.5,-,N/A,,Partly Cloudy,0,2013-01-13 10:53:00
6:53 AM,62.1,52.0,70,29.95,10.0,SSW,3.5,-,N/A,,Clear,200,2013-01-13 11:53:00
7:53 AM,62.1,52.0,70,29.97,10.0,SSW,4.6,-,N/A,,Clear,200,2013-01-13 12:53:00
8:53 AM,64.0,53.1,67,29.97,10.0,Variable,3.5,-,N/A,,Clear,0,2013-01-13 13:53:00
9:53 AM,66.0,53.1,63,29.96,10.0,Calm,Calm,-,N/A,,Overcast,0,2013-01-13 14:53:00
10:34 AM,60.8,55.4,82,30.02,1.8,NNW,8.1,21.9,0.02,Rain,Heavy Rain,330,2013-01-13 15:34:00
10:41 AM,59.0,55.4,88,30.02,1.5,Variable,5.8,-,0.06,Rain,Light Rain,0,2013-01-13 15:41:00
10:43 AM,59.0,57.2,94,30.02,2.0,North,5.8,-,0.06,Rain,Light Rain,360,2013-01-13 15:43:00
10:48 AM,59.0,57.2,94,30.02,2.5,Variable,6.9,-,0.06,Rain,Light Rain,0,2013-01-13 15:48:00
10:53 AM,57.9,55.9,93,30.00,2.5,Variable,5.8,-,0.07,Rain,Light Rain,0,2013-01-13 15:53:00
10:57 AM,57.2,55.4,94,30.03,3.0,North,8.1,-,0.00,Rain,Light Rain,360,2013-01-13 15:57:00
11:01 AM,57.2,55.4,94,30.03,3.0,Variable,5.8,-,0.01,Rain,Light Rain,0,2013-01-13 16:01:00
11:23 AM,57.2,55.4,94,30.01,9.0,Variable,4.6,-,0.01,Rain,Light Rain,0,2013-01-13 16:23:00
11:53 AM,57.0,55.0,93,29.97,10.0,Calm,Calm,-,0.01,,Overcast,0,2013-01-13 16:53:00
12:15 PM,57.2,55.4,94,30.00,2.5,Calm,Calm,-,0.02,Rain,Rain,0,2013-01-13 17:15:00
12:29 PM,57.2,55.4,94,30.01,6.0,Calm,Calm,-,0.03,Rain,Light Rain,0,2013-01-13 17:29:00
12:36 PM,57.2,55.4,94,30.00,2.5,Calm,Calm,-,0.05,Rain,Rain,0,2013-01-13 17:36:00
12:47 PM,57.2,55.4,94,29.99,3.0,Calm,Calm,-,0.06,Rain,Light Rain,0,2013-01-13 17:47:00
12:53 PM,57.0,55.9,96,29.97,2.5,Calm,Calm,-,0.07,Rain,Light Rain,0,2013-01-13 17:53:00
1:01 PM,57.2,55.4,94,29.98,0.8,Calm,Calm,-,0.00,Rain,Light Rain,0,2013-01-13 18:01:00
1:16 PM,57.2,55.4,94,29.98,0.5,Calm,Calm,-,0.00,Fog,Fog,0,2013-01-13 18:16:00
1:24 PM,57.2,55.4,94,29.98,1.0,SSE,3.5,-,0.00,,Overcast,150,2013-01-13 18:24:00
1:31 PM,57.2,55.4,94,29.97,3.0,Variable,3.5,-,0.00,,Overcast,0,2013-01-13 18:31:00
1:38 PM,57.2,55.4,94,29.96,6.0,Variable,4.6,-,0.00,,Overcast,0,2013-01-13 18:38:00
1:44 PM,57.2,55.4,94,29.95,2.5,Variable,4.6,-,0.00,,Overcast,0,2013-01-13 18:44:00
1:53 PM,57.0,55.0,93,29.94,5.0,SE,5.8,-,0.00,,Overcast,130,2013-01-13 18:53:00
2:33 PM,57.2,55.4,94,29.95,2.0,Variable,4.6,-,0.01,Rain,Light Rain,0,2013-01-13 19:33:00
2:42 PM,57.2,57.2,100,29.95,10.0,Variable,3.5,-,0.01,Rain,Light Rain,0,2013-01-13 19:42:00
2:53 PM,57.0,57.0,100,29.94,1.5,South,4.6,-,0.01,,Overcast,190,2013-01-13 19:53:00
3:00 PM,57.2,57.2,100,29.95,2.0,South,4.6,-,0.00,Rain,Light Rain,180,2013-01-13 20:00:00
3:07 PM,57.2,57.2,100,29.96,9.0,Variable,3.5,-,0.00,Rain,Light Rain,0,2013-01-13 20:07:00
3:53 PM,57.9,57.0,97,29.94,10.0,South,4.6,-,0.00,,Overcast,170,2013-01-13 20:53:00
4:39 PM,57.2,55.4,94,29.95,9.0,SSE,4.6,-,0.01,Rain,Light Rain,160,2013-01-13 21:39:00
4:53 PM,57.9,55.9,93,29.92,8.0,Variable,4.6,-,0.03,Rain,Light Rain,0,2013-01-13 21:53:00
5:11 PM,57.2,55.4,94,29.94,10.0,Variable,4.6,-,0.00,,Overcast,0,2013-01-13 22:11:00
5:44 PM,57.2,57.2,100,29.93,10.0,Variable,3.5,-,0.00,,Overcast,0,2013-01-13 22:44:00
5:53 PM,57.9,57.0,97,29.90,10.0,Variable,4.6,-,0.00,,Overcast,0,2013-01-13 22:53:00
6:53 PM,59.0,57.0,93,29.89,10.0,Variable,4.6,-,N/A,,Mostly Cloudy,0,2013-01-13 23:53:00
7:20 PM,60.8,57.2,88,29.94,1.8,West,12.7,29.9,0.00,Rain,Light Rain,260,2013-01-14 00:20:00
7:25 PM,59.0,57.2,94,29.95,1.0,WSW,6.9,29.9,0.13,Rain,Heavy Rain,250,2013-01-14 00:25:00
7:33 PM,59.0,57.2,94,29.95,2.0,Variable,3.5,16.1,0.17,Rain,Rain,0,2013-01-14 00:33:00
7:53 PM,57.9,57.0,97,29.94,4.0,Variable,4.6,-,0.24,Rain,Rain,0,2013-01-14 00:53:00
8:05 PM,57.2,57.2,100,29.97,1.8,Calm,Calm,-,0.05,Rain,Heavy Rain,0,2013-01-14 01:05:00
8:12 PM,57.2,57.2,100,29.96,1.0,Calm,Calm,-,0.07,Rain,Rain,0,2013-01-14 01:12:00
8:24 PM,57.2,57.2,100,29.96,2.0,Calm,Calm,-,0.10,Rain,Light Rain,0,2013-01-14 01:24:00
8:28 PM,57.2,57.2,100,29.96,1.2,Variable,3.5,-,0.10,Rain,Light Rain,0,2013-01-14 01:28:00
8:45 PM,57.2,57.2,100,29.96,1.8,Variable,3.5,-,0.13,Rain,Light Rain,0,2013-01-14 01:45:00
8:53 PM,57.0,57.0,100,29.94,4.0,Variable,4.6,-,0.13,Rain,Light Rain,0,2013-01-14 01:53:00
9:00 PM,57.2,57.2,100,29.95,7.0,Variable,5.8,-,0.01,Rain,Light Rain,0,2013-01-14 02:00:00
9:31 PM,57.2,57.2,100,29.97,1.8,Calm,Calm,-,0.07,Rain,Rain,0,2013-01-14 02:31:00
9:34 PM,57.2,57.2,100,29.97,1.0,Calm,Calm,-,0.08,Rain,Rain,0,2013-01-14 02:34:00
9:46 PM,57.2,57.2,100,29.98,3.0,Variable,4.6,-,0.11,Rain,Rain,0,2013-01-14 02:46:00
9:53 PM,57.9,57.0,97,29.96,2.5,Calm,Calm,-,0.12,Rain,Rain,0,2013-01-14 02:53:00
9:57 PM,57.2,57.2,100,29.98,1.8,Variable,5.8,-,0.02,Rain,Rain,0,2013-01-14 02:57:00
10:28 PM,53.6,53.6,100,30.02,3.0,WNW,16.1,26.5,0.12,Rain,Rain,290,2013-01-14 03:28:00
10:37 PM,51.8,48.2,88,30.02,6.0,WNW,15.0,28.8,0.14,Rain,Light Rain,300,2013-01-14 03:37:00
10:51 PM,48.2,46.4,93,30.02,10.0,West,11.5,26.5,0.15,Rain,Light Rain,280,2013-01-14 03:51:00
10:53 PM,48.0,46.0,93,30.02,10.0,WNW,15.0,26.5,0.15,Rain,Light Rain,290,2013-01-14 03:53:00
11:10 PM,46.4,42.8,87,30.06,10.0,WNW,13.8,25.3,N/A,Rain,Light Rain,290,2013-01-14 04:10:00
11:18 PM,46.4,42.8,87,30.07,10.0,WNW,11.5,24.2,N/A,Rain,Light Rain,300,2013-01-14 04:18:00
11:48 PM,42.8,42.8,100,30.09,5.0,WNW,11.5,20.7,0.02,Rain,Light Rain,300,2013-01-14 04:48:00
11:53 PM,43.0,41.0,93,30.09,5.0,WNW,9.2,20.7,0.02,Rain,Light Rain,300,2013-01-14 04:53:00